Simultaneous Nadir Overpasses (SNOs) Predictions

Prediction of SNOs between NOAA-20 and AQUA Satellite Orbit:

Table of predicted SNOs for the next 14.0 days since TLE Epoch: 8/14/2021
Index Date (NOAA-20) Time (NOAA-20) Lat,Lon (NOAA-20) SZA (NOAA-20 ) Date (AQUA) Time (AQUA) Lat,Lon (AQUA) SZA (AQUA ) Distance(km) Time Diff (sec)
1 08/14/2021 05:56:31 -76.33, 150.85 96.91 08/14/2021 05:56:45 -76.32, 150.83 96.91 0.78 14
2 08/14/2021 06:46:53 77.31, -37.94 81.85 08/14/2021 06:45:50 77.30, -38.03 81.92 2.47 63
3 08/16/2021 21:22:55 75.60, 96.86 84.78 08/16/2021 21:24:00 75.60, 96.84 84.73 0.62 65
4 08/16/2021 22:13:19 -76.59, -92.39 96.44 08/16/2021 22:13:07 -76.60, -92.38 96.44 0.46 12
5 08/19/2021 13:39:42 75.97,-146.17 85.15 08/19/2021 13:40:21 75.97,-146.18 85.12 0.13 39
6 08/19/2021 14:30:08 -76.86, 24.40 95.96 08/19/2021 14:29:30 -76.86, 24.44 95.94 1.06 38
7 08/22/2021 05:56:29 76.33, -29.15 85.55 08/22/2021 05:56:42 76.33, -29.16 85.54 0.20 13
8 08/22/2021 06:46:57 -77.11, 141.23 95.45 08/22/2021 06:45:53 -77.12, 141.27 95.41 1.06 64
9 08/24/2021 21:22:59 -75.44, -83.63 92.54 08/24/2021 21:24:03 -75.45, -83.58 92.61 1.72 64
10 08/24/2021 22:13:16 76.68, 87.93 85.96 08/24/2021 22:13:03 76.67, 87.90 85.98 0.87 13
11 08/27/2021 13:39:43 -75.90, 33.60 92.22 08/27/2021 13:40:21 -75.90, 33.64 92.26 1.03 38



Historial Predications of SNOs between NOAA-20 and AQUA
